Flag for Senegal Weather past 2 weeks in Thiès, Senegal

Now
81 °F

Passing clouds.


Feels Like: 85 °F
Forecast: 79 / 89 °F
Wind: 6 mph from South

Location: Dakar / Yoff

Current Time: Aug 28, 2014 at 1:12:58 AM

Latest Report: Aug 28, 2014 at 12:30 AM


Visibility: N/A

Pressure: 29.89 "Hg

Humidity: 74%

Dew point: 72 °F

Location of ThièsLocation

Historic Weather in Thiès — Graph

°F

Thiès temperature yesterday

Maximum temperature yesterday: 88 °F (at 12:30 PM)
Minimum temperature yesterday: 72 °F (at 6:55 PM)
Average temperature yesterday: 82 °F

Past Weeks' High & Low Weather Summary

 TemperatureHumidityPressure
High90 °F (Aug 22, 3:30 PM)100% (Aug 27, 7:00 PM)29.98 "Hg (Aug 27, 7:00 PM)
Low72 °F (Aug 27, 6:55 PM)62% (Aug 13, 2:30 PM)29.77 "Hg (Aug 13, 4:30 PM)
Average82 °F80%29.88 "Hg
* Reported Midnight between Aug 12 and Aug 13 — Midnight between Aug 27 and Aug 28, Thiès, Weather by CustomWeather, © 2014

Note: Actual official high and low records may vary slightly from our data, if they occured in-between our weather recording intervals... More about our weather records

Advertising

Thiès weather history for previous 24 hours

 ConditionsComfort  
Time TempWeatherWind HumidityBarometerVisibility
12:00 AM
Aug 28
81 °FOvercast.8 mph74%29.92 "HgN/A
11:30 PM
Aug 27
79 °FOvercast.8 mph79%29.92 "HgN/A
11:00 PM79 °FOvercast.16 mph84%29.92 "HgN/A
10:30 PM79 °FOvercast.15 mph84%29.89 "HgN/A
10:00 PM79 °FThunderstorms. Overcast.15 mph84%29.92 "Hg4 mi
9:30 PM77 °FThunderstorms. Mostly cloudy.15 mph83%29.95 "Hg4 mi
9:00 PM77 °FThunderstorms. Mostly cloudy.20 mph83%29.95 "Hg4 mi
8:30 PM77 °FStrong thunderstorms. Partly cloudy.21 mph83%29.95 "Hg4 mi
8:00 PM75 °FThunderstorms. Partly cloudy.16 mph89%29.95 "Hg2 mi
7:30 PM75 °FStrong thunderstorms. Partly cloudy.20 mph89%29.98 "Hg2 mi
7:00 PM72 °FStrong thunderstorms. Broken clouds.26 mph100%29.98 "Hg1 mi
6:55 PM72 °FStrong thunderstorms. Broken clouds.30 mph94%29.98 "Hg1 mi
6:00 PM86 °FScattered clouds.8 mph79%29.83 "HgN/A
5:30 PM86 °FScattered clouds.9 mph79%29.83 "HgN/A
5:00 PM88 °FPassing clouds.7 mph75%29.86 "HgN/A
4:30 PM86 °FPassing clouds.8 mph79%29.86 "HgN/A
4:00 PM88 °FPassing clouds.7 mph75%29.86 "HgN/A
2:30 PM88 °FPassing clouds.7 mph70%29.86 "HgN/A
2:00 PM88 °FPassing clouds.7 mph70%29.89 "HgN/A
1:30 PM88 °FPassing clouds.6 mph70%29.89 "HgN/A
1:00 PM88 °FPassing clouds.7 mph70%29.89 "HgN/A
12:30 PM88 °FPassing clouds.6 mph70%29.92 "HgN/A
12:00 PM86 °FPassing clouds.5 mph75%29.92 "HgN/A
11:30 AM86 °FPassing clouds.7 mph75%29.92 "HgN/A
11:00 AM86 °FScattered clouds.8 mph75%29.92 "HgN/A
10:30 AM84 °FPassing clouds.7 mph79%29.92 "HgN/A
10:00 AM84 °FScattered clouds.5 mph79%29.92 "HgN/A
9:30 AM84 °FScattered clouds.6 mph79%29.92 "HgN/A
9:00 AM84 °FScattered clouds.7 mph79%29.92 "HgN/A
8:30 AM82 °FScattered clouds.6 mph84%29.89 "HgN/A
8:00 AM81 °FScattered clouds.3 mph89%29.89 "HgN/A
7:30 AM81 °FScattered clouds.5 mph89%29.89 "HgN/A
7:00 AM81 °FScattered clouds.5 mph89%29.89 "HgN/A
6:30 AM81 °FPassing clouds.5 mph89%29.86 "HgN/A
6:00 AM81 °FPassing clouds.6 mph89%29.86 "HgN/A
5:30 AM81 °FPassing clouds.7 mph89%29.86 "HgN/A
5:00 AM81 °FPassing clouds.6 mph89%29.86 "HgN/A
4:30 AM81 °FPassing clouds.6 mph89%29.86 "HgN/A
4:00 AM81 °FPassing clouds.6 mph89%29.86 "HgN/A
3:30 AM81 °FPassing clouds.7 mph89%29.89 "HgN/A
3:00 AM81 °FPartly cloudy.6 mph89%29.89 "HgN/A
2:30 AM81 °FPartly cloudy.7 mph89%29.89 "HgN/A
2:00 AM82 °FPartly cloudy.7 mph84%29.89 "HgN/A
1:30 AM82 °FPartly cloudy.5 mph84%29.89 "HgN/A
1:00 AM82 °FPartly cloudy.7 mph84%29.92 "HgN/A
Weather by CustomWeather, © 2014

See weather overviewHow to use our weather pages